De Queen, AR

7:23 PM CDT on August 25, 2016 (GMT -0500)
Helms Sevier County

Weather History for KDEQ - October, 2010

Change the Weather History Date:

Monday, October 25, 2010

  Actual Average Record
Temperature  
Mean Temperature 69 °F 61 °F  
Max Temperature 81 °F 74 °F 88 °F (1940)
Min Temperature 56 °F 48 °F 28 °F (1980)
Degree Days  
Heating Degree Days 0 6  
Month to date heating degree days 54 85  
Since 1 July heating degree days 61 94  
Cooling Degree Days 4 2  
Month to date cooling degree days 24 64  
Year to date cooling degree days 2289 1929  
Growing Degree Days 18 (Base 50)    
Moisture  
Dew Point 63 °F    
Average Humidity 79    
Maximum Humidity 100    
Minimum Humidity 58    
Precipitation  
Precipitation 0.00 in 0.14 in 4.36 in (1984)
Month to date precipitation 1.74 3.73  
Year to date precipitation 26.99 38.93  
Snow  
Snow 0.00 in - - ()
Month to date snowfall 0.0  
Since 1 July snowfall 0.0  
Since 1 September snowfall 0.0  
Snow Depth 0.00 in    
Sea Level Pressure  
Sea Level Pressure 29.56 in    
Wind  
Wind Speed 7 mph (ESE)    
Max Wind Speed 21 mph    
Max Gust Speed 32 mph    
Visibility 9 miles    
Events      
T = Trace of Precipitation, MM = Missing Value Source: NWS Daily Summary

Daily Weather History Graph

Daily Weather History Graph

Search for Another Location

Airport or City:

Trip Planner

Search our weather history database for the weather conditions in past years. The results will help you decide how hot, cold, wet, or windy it might be!

Date:

Astronomy

Oct. 25, 2010 Rise Set
Actual Time 7:30 AM CDT 6:31 PM CDT
Civil Twilight 7:05 AM CDT 6:57 PM CDT
Nautical Twilight 6:36 AM CDT 7:26 PM CDT
Astronomical Twilight 6:07 AM CDT 7:55 PM CDT
Moon 8:10 PM CDT (10/25) 10:04 AM CDT (10/25)
Length of Visible Light 11h 51m
Length of Day
11h 00m
Waning Gibbous, 93% of the Moon is Illuminated
Oct 25
Waning Gibbous
Oct 30
Last Quarter
Nov 5
New
Nov 13
First Quarter
Nov 21
Full

Hourly Weather History & Observations

Time (CDT) Temp. Heat Index Dew Point Humidity Pressure Visibility Wind Dir Wind Speed Gust Speed Precip Events Conditions
12:53 AM 57.0 °F - 55.9 °F 96% 29.74 in 10.0 mi NNE 3.5 mph - N/A   Clear
1:53 AM 55.9 °F - 55.9 °F 100% 29.73 in 10.0 mi NE 3.5 mph - N/A   Clear
2:53 AM 57.0 °F - 55.9 °F 96% 29.70 in 10.0 mi NNE 3.5 mph - N/A   Clear
3:11 AM 55.4 °F - 55.4 °F 100% 29.70 in 10.0 mi NE 3.5 mph - N/A   Partly Cloudy
3:26 AM 57.2 °F - 55.4 °F 94% 29.70 in 10.0 mi Calm Calm - N/A   Mostly Cloudy
3:53 AM 57.9 °F - 57.0 °F 97% 29.68 in 10.0 mi NE 3.5 mph - N/A   Overcast
4:53 AM 59.0 °F - 57.9 °F 96% 29.67 in 10.0 mi NE 4.6 mph - N/A   Overcast
5:25 AM 60.8 °F - 59.0 °F 94% 29.67 in 10.0 mi NE 4.6 mph - N/A   Overcast
5:53 AM 60.1 °F - 60.1 °F 100% 29.66 in 7.0 mi NE 4.6 mph - N/A   Overcast
6:53 AM 61.0 °F - 61.0 °F 100% 29.64 in 5.0 mi Calm Calm - N/A   Overcast
7:40 AM 62.6 °F - 62.6 °F 100% 29.63 in 6.0 mi NE 3.5 mph - N/A   Overcast
7:53 AM 63.0 °F - 62.1 °F 97% 29.61 in 6.0 mi NE 3.5 mph - N/A   Overcast
8:53 AM 66.9 °F - 66.0 °F 97% 29.62 in 7.0 mi Calm Calm - N/A   Overcast
9:53 AM 70.0 °F - 68.0 °F 93% 29.62 in 8.0 mi Calm Calm - N/A   Overcast
10:20 AM 71.6 °F - 68.0 °F 88% 29.62 in 8.0 mi SE 3.5 mph - N/A   Overcast
10:53 AM 72.0 °F - 68.0 °F 87% 29.60 in 9.0 mi SSE 5.8 mph - N/A   Overcast
11:53 AM 75.9 °F - 68.0 °F 76% 29.56 in 10.0 mi South 10.4 mph 21.9 mph N/A   Overcast
12:32 PM 78.8 °F - 68.0 °F 69% 29.54 in 10.0 mi South 13.8 mph 19.6 mph N/A   Mostly Cloudy
12:44 PM 78.8 °F - 68.0 °F 69% 29.54 in 10.0 mi South 12.7 mph 20.7 mph N/A   Mostly Cloudy
1:14 PM 80.6 °F 83.2 °F 68.0 °F 65% 29.52 in 10.0 mi SSE 10.4 mph 18.4 mph N/A   Mostly Cloudy
2:53 PM 80.1 °F 82.1 °F 66.0 °F 62% 29.46 in 10.0 mi SSE 11.5 mph 27.6 mph N/A   Mostly Cloudy
3:53 PM 80.1 °F 81.9 °F 64.9 °F 60% 29.42 in 10.0 mi SSE 12.7 mph 26.5 mph N/A   Partly Cloudy
4:53 PM 80.1 °F 81.9 °F 64.9 °F 60% 29.40 in 10.0 mi SSE 16.1 mph 26.5 mph N/A   Clear
5:53 PM 78.1 °F - 66.0 °F 66% 29.39 in 10.0 mi SSE 8.1 mph - N/A   Clear
6:53 PM 75.9 °F - 66.0 °F 71% 29.38 in 10.0 mi SSE 5.8 mph - N/A   Clear
7:53 PM 73.9 °F - 66.0 °F 76% 29.38 in 10.0 mi ESE 3.5 mph - N/A   Clear
8:53 PM 73.9 °F - 66.0 °F 76% 29.38 in 10.0 mi SSE 4.6 mph - N/A   Clear
9:53 PM 75.9 °F - 64.9 °F 69% 29.37 in 10.0 mi South 8.1 mph - N/A   Clear
10:53 PM 75.9 °F - 66.0 °F 71% 29.37 in 10.0 mi SSE 12.7 mph 17.3 mph N/A   Clear
11:53 PM 75.9 °F - 66.0 °F 71% 29.37 in 10.0 mi South 13.8 mph 21.9 mph N/A   Clear